User: anonymous   Login
Location: Unspecified
(0.0000°N, 0.0000°E)
Time: 18:09:44
(UTC+00:00)
Language:

STARLINK-4075 - Orbit

View from above orbital plane
View from above orbital plane
View from above satellite
View from above satellite

Ground track
Ground track

The orbit is defined by the following mean orbital elements,

1 52670U          26145.44139808 +.00000000 +00000-0 -41150-5 0 00005
2 52670  53.2103 169.6370 0001151  59.9654 300.1452 15.08842142    04
Epoch (UTC): 25 May 2026 10:35:36
Eccentricity: 0.0001151
inclination: 53.2103°
perigee height: 539 km
apogee height: 541 km
right ascension of ascending node: 169.6370°
argument of perigee: 59.9654°
revolutions per day: 15.08842142
mean anomaly at epoch: 300.1452°

The dashed part of the orbit path shows where the satellite is in the earth's shadow,  

DLR